STARLINK-35403, 66081

Orbit data source: Space-Track

STARLINK-35403, 66081 is a payload satellite owned by SpaceX/Seattle (US) in LEO that was launched on Sun, 19 Oct 2025 UTC via an FALCON 9 launch vehicle from the Air Force Eastern Test Range (AFETR). Payload-class satellites include a variety of spacecraft equipped with specific instruments for various scientific and technological missions. These include communications satellites like Starlink; space stations such as the ISS; scientific satellites like the Hubble; Earth observation satellites from companies like Planet Labs, Umbra, and HawkEye 360; GPS; miniature CubeSats for education and research; and military/defense satellites.

Loading next visibility...
Identifier
66081, 2025-235Z
Orbit
LEO
Country
Flag of USUS
Related business
Manufacturer
SpaceX/Seattle
Mission
Operational spacecraft
Bus & Motor
STARLINK V2MO, Unknown motor
Mass
575 kg wet, ~530 kg dry
Launch date (UTC)
2025-10-19 (2 weeks ago)
Launch vehicle
FALCON 9
Launch site
Air Force Eastern Test Range (AFETR)
Object type
Payload
Rocket body
Debris
Shape & HBR
Unknown
Radar Cross Section
RCS unknown

Expand to show TLE details & history
Last TLE update: 15 hours ago

TLE from 15 hours ago
0 STARLINK-35403
1 66081U 25235Z   25306.50002315  .00036194  00000-0  25055-3 0  9993
2 66081  53.1526 120.1481 0000555  88.4198 162.6308 15.74171378  3413
Epoch: 2025-11-02T12:00Z
TLE epoch observation values (Epoch: 2025-11-02T12:00:02.000Z)
Latitude
-49.36634°
Longitude
138.39682°
Altitude
364.326 km
Speed
7.69 km/s
True Right ascension
00h 01m 40s
True Declination
-49° 11' 11"
Sunlit
Object was in daylight at epoch
Visualization orbit readout
Latitude
Unknown
Longitude
Unknown
Altitude
Unknown
Speed
Unknown
Apparent Right ascension
Unknown
Apparent Declination
Unknown
Sunlit
N/A
Visualization observer readout
Local Sidereal Time
22:58:01
Azimuth
Unknown
Elevation
Unknown
Doppler factor
Unknown
Orbital elements
Apogee altitude
347.626 km
Perigee altitude
346.879 km
Semi-major axis
6,725.39 km
Eccentricity
0.00006
Inclination
53.1526°
RAAN
120.1481°
Arg. of periapsis
88.4198°
True anomaly
162.6327°
Mean anomaly
162.6308°
Eccentric anomaly
162.63175°
Mean motion
3.9352 °/min
Orbital period
91.48 mins
BSTAR
0.00025055
Loading maneuver chart data...
Computing Atmospheric mass density...
Loading historical data...
Loading historical data...
Loading historical data...
Loading historical data...
Loading historical data...
Loading historical data...
Loading historical data...

Documentation

Showing up to 5 results
|